STARLINK-5729, 55596

Orbit data source: Space-Track

STARLINK-5729, 55596 is a payload satellite owned by SpaceX/Seattle (US) in LEO that was launched on Sun, 12 Feb 2023 UTC via an FALCON 9 launch vehicle from the Air Force Eastern Test Range (AFETR). Payload-class satellites include a variety of spacecraft equipped with specific instruments for various scientific and technological missions. These include communications satellites like Starlink; space stations such as the ISS; scientific satellites like the Hubble; Earth observation satellites from companies like Planet Labs, Umbra, and HawkEye 360; GPS; miniature CubeSats for education and research; and military/defense satellites.

Loading next visibility...
Identifier
55596, 2023-020AD
Orbit
LEO
Country
Flag of USUS
Related business
Manufacturer
SpaceX/Seattle
Mission
Operational Commercial Communications
Bus & Motor
STARLINK, Unknown motor
Mass
305 kg wet, ~290 kg dry
Launch date (UTC)
2023-02-12 (3 years ago)
Launch vehicle
FALCON 9
Launch site
Air Force Eastern Test Range (AFETR)
Object type
Payload
Rocket body
Debris
Shape & HBR
Box + 1 Pan, 10.1 m
Radar Cross Section
13.562 m², Large (>1 m²)

Expand to show TLE details & history
Last TLE update: 15 hours ago

TLE from 15 hours ago
0 STARLINK-5729
1 55596U 23020AD  25340.55130305 -.00000040  00000-0  12137-4 0  9996
2 55596  43.0023 150.3169 0001267 272.1731  87.8966 15.02535173154914
Epoch: 2025-12-06T13:13Z
TLE epoch observation values (Epoch: 2025-12-06T13:13:52.583Z)
Latitude
-0.00004°
Longitude
-123.72965°
Altitude
558.828 km
Speed
7.584 km/s
True Right ascension
10h 01m 16s
True Declination
0° 00' 00"
Sunlit
Object was in daylight at epoch
Visualization orbit readout
Latitude
Unknown
Longitude
Unknown
Altitude
Unknown
Speed
Unknown
Apparent Right ascension
Unknown
Apparent Declination
Unknown
Sunlit
N/A
Visualization observer readout
Local Sidereal Time
02:12:53
Azimuth
Unknown
Elevation
Unknown
Doppler factor
Unknown
Orbital elements
Apogee altitude
561.885 km
Perigee altitude
560.126 km
Semi-major axis
6,939.143 km
Eccentricity
0.00013
Inclination
43.0023°
RAAN
150.3169°
Arg. of periapsis
272.1731°
True anomaly
87.91111°
Mean anomaly
87.8966°
Eccentric anomaly
87.90385°
Mean motion
3.75478 °/min
Orbital period
95.88 mins
BSTAR
0.000012137
Loading maneuver chart data...
Computing Atmospheric mass density...
Loading historical data...
Loading historical data...
Loading historical data...
Loading historical data...
Loading historical data...
Loading historical data...
Loading historical data...

Documentation

Showing up to 5 results
|